Satellite-Ground Cal/Val Region Overpasses Predictions

Prediction of Satellite NPP Overpassing Cal/Val Region: PacNW

Region Location: (Latitude: 10.00, Longitude: 139.50) to (Latitude: 22.70, Longitude: 165.60).

Table of predicted overpasses for the next 14.0 days since TLE Epoch: 1/25/2013
Interval Starting Time Starting Location Ending Time Ending Location
1 01/25/2013 03:02:40 ( 10.05, 153.59) 01/25/2013 03:06:15 ( 22.67, 150.59)
2 01/25/2013 15:34:33 ( 22.70, 150.84) 01/25/2013 15:38:09 ( 10.02, 147.82)
3 01/26/2013 02:43:40 ( 10.05, 158.34) 01/26/2013 02:47:15 ( 22.67, 155.34)
4 01/26/2013 15:15:33 ( 22.69, 155.59) 01/26/2013 15:19:09 ( 10.01, 152.58)
5 01/27/2013 02:24:40 ( 10.06, 163.10) 01/27/2013 02:28:15 ( 22.68, 160.09)
6 01/27/2013 14:56:32 ( 22.69, 160.35) 01/27/2013 15:00:08 ( 10.01, 157.33)
7 01/28/2013 02:08:22 ( 19.63, 165.60) 01/28/2013 02:09:14 ( 22.68, 164.84)
8 01/28/2013 03:47:08 ( 10.00, 142.49) 01/28/2013 03:50:41 ( 22.50, 139.51)
9 01/28/2013 14:37:32 ( 22.69, 165.10) 01/28/2013 14:41:08 ( 10.01, 162.08)
10 01/28/2013 16:19:02 ( 22.69, 139.72) 01/28/2013 16:19:17 ( 21.81, 139.50)
11 01/29/2013 03:28:08 ( 10.00, 147.24) 01/29/2013 03:31:44 ( 22.68, 144.22)
12 01/29/2013 16:00:01 ( 22.69, 144.48) 01/29/2013 16:03:37 ( 10.01, 141.46)
13 01/30/2013 03:09:07 ( 10.00, 151.99) 01/30/2013 03:12:43 ( 22.69, 148.97)
14 01/30/2013 15:41:01 ( 22.68, 149.23) 01/30/2013 15:44:37 ( 10.00, 146.21)
15 01/31/2013 02:50:07 ( 10.01, 156.75) 01/31/2013 02:53:43 ( 22.69, 153.73)
16 01/31/2013 15:22:00 ( 22.68, 153.98) 01/31/2013 15:25:36 ( 10.00, 150.96)
17 02/01/2013 02:31:06 ( 10.01, 161.50) 02/01/2013 02:34:42 ( 22.69, 158.48)
18 02/01/2013 15:03:00 ( 22.68, 158.73) 02/01/2013 15:06:36 ( 10.00, 155.72)
19 02/02/2013 02:12:55 ( 12.89, 165.59) 02/02/2013 02:15:42 ( 22.69, 163.23)
20 02/02/2013 03:53:36 ( 10.01, 140.88) 02/02/2013 03:55:16 ( 15.89, 139.51)
21 02/02/2013 14:43:59 ( 22.68, 163.49) 02/02/2013 14:47:34 ( 10.06, 160.48)
22 02/03/2013 03:34:35 ( 10.01, 145.63) 02/03/2013 03:38:11 ( 22.70, 142.61)
23
